Weather History for Ord, NE

Change the Weather History Date:

Wednesday, November 21, 2012

  Actual Average Record
Temperature  
Mean Temperature 49 °F 34 °F  
Max Temperature 67 °F 46 °F 67 °F (2012)
Min Temperature 30 °F 21 °F 1 °F (2000)
Degree Days  
Heating Degree Days 16    
Month to date heating degree days 534  
Since 1 July heating degree days 1225  
Cooling Degree Days 0    
Month to date cooling degree days 0  
Year to date cooling degree days 1220  
Moisture  
Dew Point 28 °F    
Average Humidity 49    
Maximum Humidity 76    
Minimum Humidity 22    
Precipitation  
Precipitation 0.00 in 0.03 in 0.78 in (1973)
Month to date precipitation 0.05 0.81  
Year to date precipitation 11.42 24.09  
Sea Level Pressure  
Sea Level Pressure 29.91 in    
Wind  
Wind Speed 8 mph (South)    
Max Wind Speed 24 mph    
Max Gust Speed 29 mph    
Visibility 10 miles    
Events      
T = Trace of Precipitation, MM = Missing Value Source: NWS Daily Summary

Daily Weather History Graph

Daily Weather History Graph

Search for Another Location

Airport:

Trip Planner

Search our weather history database for the weather conditions in past years. The results will help you decide how hot, cold, wet, or windy it might be!

Date:

Astronomy

Nov. 21, 2012 Rise Set
Actual Time 7:32 AM CST 5:10 PM CST
Civil Twilight 7:02 AM CST 5:41 PM CST
Nautical Twilight 6:28 AM CST 6:15 PM CST
Astronomical Twilight 5:55 AM CST 6:48 PM CST
Moon 1:32 PM CST (11/21) 12:48 AM CST (11/21)
Length of Visible Light 10h 38m
Length of Day
9h 38m
First Quarter, 62% of the Moon is Illuminated
Nov 21
First Quarter
Nov 28
Full
Dec 6
Last Quarter
Dec 13
New
Dec 19
First Quarter

Hourly Weather History & Observations

Time (CST) Temp. Windchill Dew Point Humidity Pressure Visibility Wind Dir Wind Speed Gust Speed Precip Events Conditions
12:53 AM 48.0 °F - 32.0 °F 54% 30.03 in 10.0 mi South 10.4 mph - N/A   Clear
1:53 AM 44.1 °F 39.5 °F 30.9 °F 60% 30.02 in 10.0 mi SSW 8.1 mph - N/A   Clear
2:53 AM 43.0 °F 41.3 °F 30.0 °F 60% 30.03 in 10.0 mi East 3.5 mph - N/A   Clear
3:53 AM 45.0 °F 43.5 °F 30.9 °F 58% 30.01 in 10.0 mi South 3.5 mph - N/A   Clear
4:53 AM 42.1 °F 39.2 °F 30.9 °F 65% 30.01 in 10.0 mi ESE 4.6 mph - N/A   Clear
5:53 AM 37.0 °F 33.3 °F 30.0 °F 76% 30.03 in 10.0 mi SE 4.6 mph - N/A   Clear
6:53 AM 36.0 °F 32.1 °F 28.9 °F 76% 30.02 in 10.0 mi ESE 4.6 mph - N/A   Clear
7:53 AM 36.0 °F 31.1 °F 28.9 °F 76% 30.02 in 10.0 mi SE 5.8 mph - N/A   Clear
8:53 AM 41.0 °F 39.0 °F 32.0 °F 70% 30.00 in 10.0 mi East 3.5 mph - N/A   Clear
9:53 AM 50.0 °F - 32.0 °F 50% 29.98 in 10.0 mi SSW 12.7 mph - N/A   Clear
10:53 AM 55.0 °F - 30.9 °F 40% 29.95 in 10.0 mi South 17.3 mph - N/A   Clear
11:53 AM 60.1 °F - 28.0 °F 30% 29.91 in 10.0 mi South 16.1 mph 25.3 mph N/A   Clear
12:53 PM 64.9 °F - 28.0 °F 25% 29.86 in 10.0 mi SSW 16.1 mph - N/A   Clear
1:53 PM 66.0 °F - 27.0 °F 23% 29.84 in 10.0 mi SSW 19.6 mph 24.2 mph N/A   Clear
2:53 PM 66.9 °F - 28.0 °F 23% 29.82 in 10.0 mi SSW 19.6 mph - N/A   Clear
3:53 PM 66.0 °F - 28.0 °F 24% 29.80 in 10.0 mi SSW 15.0 mph - N/A   Clear
4:53 PM 62.1 °F - 27.0 °F 26% 29.81 in 10.0 mi SSW 8.1 mph - N/A   Clear
5:53 PM 53.1 °F - 25.0 °F 34% 29.82 in 10.0 mi SSW 10.4 mph - N/A   Clear
6:53 PM 45.0 °F 41.8 °F 24.1 °F 44% 29.83 in 10.0 mi SSW 5.8 mph - N/A   Clear
7:53 PM 39.9 °F - 23.0 °F 51% 29.83 in 10.0 mi Calm Calm - N/A   Clear
8:53 PM 35.1 °F - 21.9 °F 59% 29.82 in 10.0 mi Calm Calm - N/A   Clear
9:53 PM 32.0 °F 27.5 °F 21.9 °F 66% 29.81 in 10.0 mi SSW 4.6 mph - N/A   Clear
10:53 PM 30.9 °F - 21.0 °F 67% 29.78 in 10.0 mi Calm Calm - N/A   Clear
11:53 PM 32.0 °F 27.5 °F 21.9 °F 66% 29.76 in 10.0 mi SSE 4.6 mph - N/A   Clear